Location: Oak Glen
(34.0495°N, 116.9470°E)
Time: 18:55:09
(UTC-07:00)

Vanguard 1 - All Passes

Search period start: 17 June 2018 00:00
Search period end: 27 June 2018 00:00
Orbit: 650 x 3833 km, 34.3° (Epoch: 17 June)

Date Brightness Start Highest point End Pass type
(mag) Time Alt. Az. Time Alt. Az. Time Alt. Az.
17 Jun - 14:38:59 10° SSW 14:48:30 47° SE 15:05:16 10° ENE daylight
17 Jun - 16:58:09 10° WSW 17:11:42 85° SSE 17:34:32 10° E daylight
17 Jun - 19:20:14 10° W 19:38:48 88° S 20:02:47 10° ESE daylight
17 Jun - 21:44:28 10° WNW 22:06:17 64° SSW 22:27:07 10° SE daylight
18 Jun - 00:12:54 10° W 00:30:35 29° SW 00:45:13 10° S daylight
18 Jun - 12:44:45 10° SSE 12:49:36 15° SE 12:55:56 10° E visible
18 Jun - 14:59:18 10° SW 15:09:12 58° SSE 15:27:16 10° ENE daylight
18 Jun - 17:19:11 10° W 17:33:15 89° S 17:56:29 10° E daylight
18 Jun - 19:41:32 10° W 20:00:34 84° SSW 20:24:21 10° ESE daylight
18 Jun - 22:06:04 10° WNW 22:27:30 55° SW 22:47:37 10° SE daylight
19 Jun - 00:36:36 10° W 00:51:07 21° SW 01:03:34 10° S daylight
19 Jun - 13:03:19 10° S 13:09:45 23° SE 13:19:24 10° E visible
19 Jun - 15:19:52 10° SW 15:30:07 69° SSE 15:49:11 10° ENE daylight
19 Jun - 17:40:18 10° W 17:54:54 89° N 18:18:26 10° E daylight
19 Jun - 20:02:49 10° WNW 20:22:15 78° SSW 20:45:43 10° ESE daylight
19 Jun - 22:27:52 10° WNW 22:48:33 46° SW 23:07:47 10° SSE daylight
20 Jun - 01:02:23 10° W 01:11:38 14° SW 01:20:01 10° SSW daylight
20 Jun - 13:22:49 10° SSW 13:30:01 33° SE 13:41:56 10° E visible
20 Jun - 15:40:36 10° WSW 15:51:14 78° SSE 16:11:06 10° ENE daylight
20 Jun - 18:01:26 10° W 18:16:36 90° N 18:40:21 10° E daylight
20 Jun - 20:24:09 10° WNW 20:43:48 71° SSW 21:06:52 10° SE daylight
20 Jun - 22:49:58 10° W 23:09:27 37° SW 23:27:31 10° SSE daylight
21 Jun - 13:42:48 10° SSW 13:50:27 43° SE 14:04:03 10° ENE daylight
21 Jun - 16:01:28 10° WSW 16:12:32 85° SSE 16:33:02 10° E daylight
21 Jun - 18:22:36 10° W 18:38:17 88° S 19:02:11 10° ESE daylight
21 Jun - 20:45:32 10° WNW 21:05:14 63° SSW 21:27:43 10° SE daylight
21 Jun - 23:12:35 10° W 23:30:16 29° SW 23:46:42 10° S daylight
22 Jun - 11:49:41 10° SE 11:52:08 12° SE 11:54:57 10° ESE visible
22 Jun - 14:03:06 10° SW 14:11:06 55° SSE 14:25:59 10° ENE daylight
22 Jun - 16:22:25 10° W 16:33:57 89° S 16:55:02 10° E daylight
22 Jun - 18:43:45 10° W 18:59:57 83° SSW 19:23:51 10° ESE daylight
22 Jun - 21:07:01 10° WNW 21:26:32 54° SSW 21:48:16 10° SE daylight
22 Jun - 23:36:06 10° W 23:51:01 22° SW 00:05:01 10° S daylight
23 Jun - 12:07:31 10° S 12:12:18 19° SE 12:18:59 10° E visible
23 Jun - 14:23:38 10° SW 14:31:56 67° SSE 14:47:50 10° ENE daylight
23 Jun - 16:43:26 10° W 16:55:27 89° N 17:17:02 10° E daylight
23 Jun - 19:04:56 10° WNW 19:21:33 77° SSW 19:45:20 10° ESE daylight
23 Jun - 21:28:41 10° WNW 21:47:42 45° SW 22:08:26 10° SSE daylight
24 Jun - 00:01:33 10° WSW 00:11:46 15° SW 00:21:34 10° SSW daylight
24 Jun - 12:26:54 10° SSW 12:32:34 28° SE 12:41:30 10° E visible
24 Jun - 14:44:20 10° WSW 14:52:58 77° SSE 15:09:41 10° E daylight
24 Jun - 17:04:29 10° W 17:16:59 90° N 17:39:02 10° E daylight
24 Jun - 19:26:08 10° WNW 19:43:03 70° SSW 20:06:33 10° SE daylight
24 Jun - 21:50:41 10° W 22:08:47 37° SW 22:28:10 10° SSE daylight
25 Jun - 12:46:50 10° SSW 12:53:00 39° SE 13:03:32 10° E visible
25 Jun - 15:05:09 10° WSW 15:14:09 85° SSE 15:31:35 10° E daylight
25 Jun - 17:25:32 10° W 17:38:31 87° S 18:00:56 10° ESE daylight
25 Jun - 19:47:24 10° WNW 20:04:28 61° SSW 20:27:28 10° SE daylight
25 Jun - 22:13:10 10° W 22:29:48 29° SW 22:47:18 10° S daylight
26 Jun - 13:07:07 10° SW 13:13:36 52° SSE 13:25:21 10° ENE visible
26 Jun - 15:26:04 10° W 15:35:26 90° S 15:53:32 10° E daylight
26 Jun - 17:46:36 10° W 18:00:02 82° SSW 18:22:41 10° ESE daylight
26 Jun - 20:08:46 10° WNW 20:25:49 52° SSW 20:48:03 10° SE daylight
26 Jun - 22:36:35 10° W 22:50:47 21° SW 23:05:32 10° S daylight
